Regional Weather Roundup
Issued by NWS Spokane, WA

Home | Current Version | Previous Version | Text Only | Print | Product List | Glossary On
Versions: 1 2 3 4 5 6 7 8 9 10 11 12 13 14 15 16 17 18 19 20 21 22 23 24 25 26 27 28 29 30 31 32 33 34 35 36 37 38 39 40 41 42 43 44 45 46 47 48 49 50
000
NZUS01 KOTX 180825
RWROTX

Eastern Washington/Northern Idaho Roundup
National Weather Service, Spokane WA
1200 AM PST SAT NOV 18 2017

Note: "fair" indicated few or no clouds below 12,000 feet with no
significant weather and/or obstructions to visibility.

...Northeast Washington and Northern Idaho Panhandle...

CITY           SKY/WX    TMP DP  RH WIND       PRES   REMARKS
Spokane Intl   MOCLDY    33  31  92 SW15      30.24R WCI  23
Spokane Downto CLOUDY    36  31  82 S5        30.28R
Coeur d Alene  MOCLDY    33  29  85 CALM      30.26R
Deer Park      PTCLDY    31  26  82 S5        30.25R WCI  26
Sandpoint      PTCLDY    34  30  86 SW6       30.24R WCI  29
Bonners Ferry  CLOUDY    36  28  75 S5        30.20R

...Southeast Washington and southern Idaho Panhandle...

CITY           SKY/WX    TMP DP  RH WIND       PRES   REMARKS
Walla Walla    CLOUDY    43  32  65 S10       30.33R
Pullman/Moscow PTCLDY    35  29  78 SW8       30.30R WCI  29
Lewiston       CLOUDY    37  30  75 CALM      30.32R
Lowell           N/A     37  35  92 CALM      30.37R
Grangeville    CLOUDY    34  25  69 W8        30.29R WCI  27

...Columbia Basin...

CITY           SKY/WX    TMP DP  RH WIND       PRES   REMARKS
Ephrata        CLOUDY    38  25  59 SE6       30.25R
Moses Lake     CLOUDY    40  31  70 SW8       30.26R
Pasco          CLOUDY    44  35  70 W10       30.33R
Richland       CLOUDY    44  35  71 S7        30.33R
Hermiston      MOCLDY    42  33  70 SW10      30.33R
Pendleton      MOCLDY    37  29  72 S6        30.32R

...East Slopes Cascades...

CITY           SKY/WX    TMP DP  RH WIND       PRES   REMARKS
The Dalles     MOCLDY    41  36  82 N3        30.37R
Yakima         MOCLDY    34  27  75 SW3       30.30R
Ellensburg     PTCLDY    34  29  82 NW5       30.27R WCI  30
Stampede Pass  SNOW      31  30  96 VRB5      30.21S VSB 1/4 WCI  26
Wenatchee      MOCLDY    34  27  75 E6        30.25R WCI  29
Omak           MOCLDY    36  28  73 S5        30.22R
Chelan           N/A     43  23  45 MISG        N/A
Sunnyside      CLOUDY    33  30  88 CALM      30.31S

...Southern British Columbia...

CITY           SKY/WX    TMP DP  RH WIND       PRES   REMARKS
Penticton      CLOUDY    43  30  61 S12       30.20R
Cranbrook      MOCLDY    32  21  64 SW5       30.10R WCI  27
Osoyoos          N/A     36  34  93 NE1         N/A
Creston          N/A     36  30  80 NE2         N/A

...Western Montana...

CITY           SKY/WX    TMP DP  RH WIND       PRES   REMARKS
Kalispell      CLOUDY    35  27  72 S7        30.16R WCI  29
Libby            N/A     32  28  86 CALM      30.17R
Missoula       CLOUDY    35  25  66 E3        30.23R

...Neighboring Cities...

CITY           SKY/WX    TMP DP  RH WIND       PRES   REMARKS
Seattle        CLOUDY    45  39  79 S9        30.31R
Portland       CLOUDY    45  41  86 CALM      30.38R
Boise          CLEAR     30  23  75 SE9       30.37R WCI  22
Great Falls    MOCLDY    29  17  61 SW14      30.02R WCI  18
Calgary        PTCLDY     7   1  78 S8        29.88S WCI  -6



USA.gov is the U.S. government's official web portal to all federal, state and local government web resources and services.